Find Starlink 31388

NORAD ID: 59565 Int'l Des: 2024-076 Owner: SPXS Country: US Constellation: starlink operational
LEOCIRCULAR

当前视图

正在加载3D地球...

关于 Starlink 31388

正在加载描述...

即将过境

Passes for default location (London). Set your location on the main map for personalized predictions.

高度历史

Loading altitude history...

两行轨道根数

1 59565U 24076B 26158.29198140 -.00063689 00000-0 -23556-2 0 9992
2 59565 42.9995 223.2070 0002851 334.3752 25.6958 15.27145303120200
Epoch: Jun 7, 2026 • Age: 20 hours

当前状态

高度 491.2 km
速度 7.62 km/s
星下点 -22.98°S, 127.22°E
发射日期 Apr 23, 2024
运行时间 2.1 years
类型 internet

技术详情

分类 Payload
质量 730.00 kg
干质量 700.00 kg
总质量 730.00 kg
长度 0.30 m
直径 4.10 m
跨度 29.00 m
形状 Box + pan
制造商 SPXS
平台类型 Starlink V2M
阶段状态 In Orbit
所有者/国家 SPXS/US

Most Searched